Weather reports worldwide

Advertisment
Dorans, France (7296): temperature & dewpoint: 10.01.2018 20:00:00 - 16.01.2018 20:00:00 (CET)Dorans, France (7296): temperature 5cm: 10.01.2018 20:00:00 - 16.01.2018 20:00:00 (CET)Dorans, France (7296): temperature -20cm & temperature -100cm: 10.01.2018 20:00:00 - 16.01.2018 20:00:00 (CET)Dorans, France (7296): wind speed & gusts: 10.01.2018 20:00:00 - 16.01.2018 20:00:00 (CET)Dorans, France (7296): wind direction: 10.01.2018 20:00:00 - 16.01.2018 20:00:00 (CET)Dorans, France (7296): reduced air pressure: 10.01.2018 20:00:00 - 16.01.2018 20:00:00 (CET)Dorans, France (7296): visibility: 10.01.2018 20:00:00 - 16.01.2018 20:00:00 (CET)Dorans, France (7296): precipitation: 10.01.2018 20:00:00 - 16.01.2018 20:00:00 (CET)
Date & Time tt [°C] td [°C] tt 5cm [°C] tt -20cm [°C] tt -100cm [°C] ff [km/h] ff [kn] fx [km/h] fx [kn] dd ppp [hPa] vv [km] rr [mm]
16.01.2018 20:00:00 6,0 4,0 5,0 5,4 7,3 17 9 78 42 W 1004,1 20 1,6
16.01.2018 19:00:00 7,1 5,2 5,3 5,4 7,3 23 13 43 23 WSW 1003,5 12 0,2
16.01.2018 18:00:00 6,1 4,4 4,8 5,3 7,3 19 10 54 29 WSW 1004,1 20 0,0
16.01.2018 17:00:00 5,9 4,4 5,0 5,3 7,3 21 12 55 30 W 1004,3 10 1,6
16.01.2018 16:00:00 6,5 4,3 5,7 5,2 7,3 25 13 55 30 WSW 1004,7 19 0,2
16.01.2018 15:00:00 6,3 4,9 5,3 5,2 7,4 29 16 86 47 W 1004,9 11 6,3
16.01.2018 14:00:00 8,1 5,7 6,8 5,1 7,4 38 21 89 48 WSW 1004,1 8 1,2
16.01.2018 13:00:00 8,2 5,7 7,0 5,0 7,4 38 21 82 44 WSW 1004,1 13 0,4
16.01.2018 12:00:00 8,0 6,1 6,8 5,0 7,4 39 21 77 42 WSW 1003,5 15 1,8
16.01.2018 11:00:00 7,7 6,0 6,5 4,9 7,4 34 18 58 32 WSW 1004,4 15 0,4
16.01.2018 10:00:00 7,5 5,5 6,5 4,9 7,4 34 18 66 36 WSW 1004,8 16 0,2
16.01.2018 09:00:00 7,8 5,3 6,1 4,8 7,4 35 19 76 41 WSW 1004,3 20 0,2
16.01.2018 08:00:00 7,2 5,3 6,2 4,7 7,4 35 19 81 44 SW 1004,1 16 0,2
16.01.2018 07:00:00 7,1 5,4 5,7 4,7 7,4 36 19 69 37 SW 1003,9 20 0,8
16.01.2018 06:00:00 6,6 4,8 5,6 4,7 7,4 33 18 71 38 SW 1003,7 19 0,6
16.01.2018 05:00:00 6,4 5,3 5,4 4,7 7,5 29 16 57 31 SW 1004,8 7 1,4
16.01.2018 04:00:00 6,4 4,7 5,3 4,6 7,5 32 17 80 43 SW 1005,7 15 0,6
16.01.2018 03:00:00 6,2 4,4 5,1 4,6 7,5 28 15 74 40 WSW 1005,9 20 0,0
16.01.2018 02:00:00 6,4 4,1 5,3 4,5 7,5 34 19 74 40 WSW 1006,3 17 0,2
16.01.2018 01:00:00 6,8 3,8 5,6 4,5 7,5 36 20 71 39 WSW 1006,3 17 0,0
16.01.2018 00:00:00 7,1 3,3 5,8 4,5 7,5 29 16 69 38 WSW 1006,8 20 0,0
15.01.2018 23:00:00 6,7 3,1 4,5 4,5 7,5 35 19 71 38 WSW 1007,0 20 0,0
15.01.2018 22:00:00 5,7 3,2 4,4 4,4 7,5 29 16 61 33 SW 1007,5 20 0,2
15.01.2018 21:00:00 5,5 3,3 4,4 4,4 7,5 28 15 58 31 SW 1008,1 20 0,6
15.01.2018 20:00:00 6,0 3,2 4,4 4,3 7,5 28 15 59 32 SW 1008,9 20 0,8
15.01.2018 19:00:00 5,4 3,4 4,3 4,3 7,5 22 12 54 29 SW 1009,7 17 1,6
15.01.2018 18:00:00 7,5 1,6 6,1 4,2 7,5 25 13 49 27 WSW 1010,1 20 0,0
15.01.2018 17:00:00 7,6 1,2 6,7 4,1 7,5 21 11 50 27 SW 1010,8 20 0,0
15.01.2018 16:00:00 7,2 1,3 6,2 4,0 7,5 19 11 41 22 SW 1012,3 20 0,0
15.01.2018 15:00:00 6,2 1,3 6,1 3,9 7,5 10 5 24 13 W 1014,4 20 0,0
15.01.2018 14:00:00 5,9 0,8 5,8 3,9 7,5 8 4 18 10 WNW 1015,7 20 0,0
15.01.2018 13:00:00 4,4 0,7 - - - 5 3 9 5 WNW 1017,1 19 -
15.01.2018 12:00:00 3,2 0,9 2,7 3,8 7,5 4 2 8 4 NNW 1018,7 9 0,0
15.01.2018 11:00:00 1,0 -0,3 0,0 3,9 7,5 1 1 8 5 ESE 1020,2 11 0,0
15.01.2018 10:00:00 0,0 -0,9 -0,5 3,9 7,6 4 2 8 5 SW 1021,0 3,8 0,0
15.01.2018 09:00:00 -0,5 -1,2 -1,5 3,9 7,5 3 1 6 3 S 1021,4 4,9 0,0
15.01.2018 08:00:00 -1,3 -2,0 -1,6 4,0 7,5 4 2 7 4 NW 1021,7 3,6 0,0
15.01.2018 07:00:00 -1,6 -2,2 -2,2 4,1 7,6 6 3 9 5 WNW 1021,8 3,7 0,0
15.01.2018 06:00:00 -2,3 -3,0 -3,4 4,1 7,6 1 1 4 2 SW 1022,2 2,6 0,0
15.01.2018 05:00:00 -2,4 -3,0 -4,8 4,2 7,6 2 1 4 2 SSW 1022,6 2,5 0,0
15.01.2018 04:00:00 -2,1 -2,8 -5,6 4,3 7,6 2 1 8 4 ENE 1023,1 5 0,0
15.01.2018 03:00:00 -2,3 -3,0 -5,4 4,3 7,6 5 3 10 5 N 1023,1 4,1 0,0
15.01.2018 02:00:00 -1,8 -2,5 -5,6 4,4 7,6 6 3 9 5 ENE 1023,0 4,1 0,0
15.01.2018 01:00:00 -2,0 -3,0 -4,9 4,5 7,6 3 2 7 4 ENE 1023,7 4,4 0,0
15.01.2018 00:00:00 -1,6 -2,7 -4,7 4,6 7,6 5 3 10 5 ESE 1023,7 4,5 0,0
14.01.2018 23:00:00 -1,3 -2,6 -4,5 4,6 7,6 5 3 13 7 E 1023,8 6 0,0
14.01.2018 22:00:00 -0,8 -2,4 -3,4 4,7 7,6 8 5 15 8 ENE 1023,5 8 0,0
14.01.2018 21:00:00 -0,6 -2,2 -2,6 4,7 7,6 10 5 18 10 ENE 1023,4 8 0,0
14.01.2018 20:00:00 -0,4 -2,1 -2,0 4,8 7,6 11 6 18 10 ENE 1023,2 8 0,0
14.01.2018 19:00:00 0,4 -2,0 -1,7 4,8 7,6 9 5 21 11 ENE 1022,8 10 0,0
14.01.2018 18:00:00 1,1 -1,8 -1,5 4,8 7,6 9 5 18 10 ENE 1022,2 13 0,0
14.01.2018 17:00:00 2,3 -1,5 0,3 4,7 7,6 10 6 20 11 E 1021,7 15 0,0
14.01.2018 16:00:00 3,8 -0,6 3,9 4,7 7,6 8 4 16 8 E 1021,1 14 0,0
14.01.2018 15:00:00 3,3 -0,7 2,9 4,6 7,6 10 6 23 12 E 1021,0 15 0,0
14.01.2018 14:00:00 4,1 -0,5 7,8 4,5 7,6 14 8 25 14 E 1020,6 17 0,0
14.01.2018 13:00:00 3,4 -0,3 5,7 4,5 7,6 13 7 26 14 E 1021,0 13 0,0
14.01.2018 12:00:00 3,1 -0,4 5,5 4,5 7,6 15 8 38 21 E 1021,4 13 0,0
14.01.2018 11:00:00 2,0 -1,1 2,6 4,5 7,6 18 10 31 17 E 1021,9 13 0,0
14.01.2018 10:00:00 1,3 -1,6 0,1 4,6 7,6 16 8 32 17 E 1021,7 13 0,0
14.01.2018 09:00:00 0,2 -2,2 -1,5 4,7 7,6 16 9 29 16 ENE 1021,4 12 0,0
14.01.2018 08:00:00 -0,3 -2,4 -1,8 4,7 7,6 16 8 27 15 E 1021,4 12 0,0
14.01.2018 07:00:00 -0,3 -2,4 -1,8 4,8 7,7 13 7 25 13 ENE 1021,1 12 0,0
14.01.2018 06:00:00 0,0 -2,4 -1,4 4,8 7,6 14 8 27 14 ENE 1020,9 13 0,0
14.01.2018 05:00:00 0,3 -2,1 -1,8 4,9 7,6 16 8 28 15 ENE 1020,9 14 0,0
14.01.2018 04:00:00 0,1 -2,1 -1,7 5,0 7,6 11 6 23 12 E 1021,1 14 0,0
14.01.2018 03:00:00 0,6 -2,0 -0,7 5,1 7,6 14 8 27 15 ENE 1021,1 14 0,0
14.01.2018 02:00:00 0,6 -1,8 -1,5 5,1 7,6 14 7 24 13 ENE 1021,1 13 0,0
14.01.2018 01:00:00 0,2 -1,7 -1,6 5,2 7,6 11 6 21 11 ENE 1021,4 10 0,0
14.01.2018 00:00:00 0,4 -1,7 -1,5 5,3 7,6 13 7 23 12 ENE 1021,7 11 0,0
13.01.2018 23:00:00 0,5 -1,9 -1,1 5,4 7,6 13 7 28 15 ENE 1021,4 14 0,0
13.01.2018 22:00:00 1,1 -2,0 -0,4 5,5 7,6 15 8 29 16 E 1021,3 18 0,0
13.01.2018 21:00:00 1,6 -1,8 -0,1 5,5 7,6 17 9 32 17 E 1021,4 19 0,0
13.01.2018 20:00:00 1,6 -1,5 0,0 5,5 7,6 16 9 33 18 ENE 1021,3 19 0,0
13.01.2018 19:00:00 2,1 -1,2 0,5 5,6 7,6 18 10 32 17 ENE 1021,3 19 0,0
13.01.2018 18:00:00 2,6 -0,7 0,8 5,6 7,6 16 9 31 17 ENE 1021,4 18 0,0
13.01.2018 17:00:00 3,6 -0,2 2,1 5,6 7,6 18 10 31 17 ENE 1021,2 19 0,0
13.01.2018 16:00:00 4,9 0,3 5,5 5,5 7,6 17 9 32 17 ENE 1021,1 19 0,0
13.01.2018 15:00:00 5,2 0,4 7,7 5,5 7,6 21 11 34 18 ENE 1021,2 19 0,0
13.01.2018 14:00:00 5,3 0,7 9,0 5,4 7,6 18 10 35 19 E 1021,6 16 0,0
13.01.2018 13:00:00 4,9 0,7 8,1 5,4 7,6 18 10 37 20 E 1022,3 17 0,0
13.01.2018 12:00:00 4,5 0,4 6,9 5,4 7,6 21 11 36 20 E 1023,2 20 0,0
13.01.2018 11:00:00 3,6 0,3 3,6 5,4 7,6 18 10 36 19 ENE 1023,5 17 0,0
13.01.2018 10:00:00 2,3 0,2 1,0 5,5 7,6 16 9 29 15 ENE 1023,5 12 0,0
13.01.2018 09:00:00 1,2 0,0 0,4 5,5 7,6 19 10 31 17 ENE 1023,7 7 0,0
13.01.2018 08:00:00 1,2 0,2 0,9 5,6 7,6 18 10 33 18 ENE 1023,8 7 0,0
13.01.2018 07:00:00 1,3 0,3 1,2 5,6 7,6 11 6 22 12 E 1024,1 6 0,0
13.01.2018 06:00:00 1,5 0,5 1,3 5,6 7,6 13 7 24 13 E 1024,6 6 0,0
13.01.2018 05:00:00 1,7 0,8 1,6 5,6 7,6 11 6 21 11 ESE 1025,0 6 0,0
13.01.2018 04:00:00 2,0 1,1 1,6 5,7 7,6 9 5 21 11 ESE 1025,3 5 0,0
13.01.2018 03:00:00 2,2 1,2 1,9 5,7 7,6 13 7 20 11 ESE 1025,7 6 0,0
13.01.2018 02:00:00 2,6 1,6 2,3 5,7 7,6 9 5 15 8 ESE 1025,6 6 0,0
13.01.2018 01:00:00 3,0 1,5 2,6 5,8 7,6 6 3 17 9 E 1025,7 9 0,0
13.01.2018 00:00:00 3,2 1,7 2,7 5,8 7,6 11 6 22 12 ENE 1025,5 10 0,0
12.01.2018 23:00:00 3,2 1,9 2,8 5,8 7,6 9 5 24 13 E 1025,5 8 0,0
12.01.2018 22:00:00 3,1 2,1 2,2 5,9 7,6 11 6 21 12 E 1025,8 6 0,0
12.01.2018 21:00:00 3,1 1,8 2,4 5,9 7,6 10 5 19 10 E 1025,5 9 0,0
12.01.2018 20:00:00 3,4 1,8 2,9 5,9 7,6 11 6 23 12 ENE 1025,6 11 0,0
12.01.2018 19:00:00 3,5 1,9 2,8 5,9 7,6 14 7 23 12 ENE 1025,6 11 0,0
12.01.2018 18:00:00 3,5 1,9 3,1 5,9 7,6 11 6 22 12 E 1025,6 11 0,0
12.01.2018 17:00:00 3,7 1,9 3,4 5,9 7,6 13 7 26 14 ENE 1025,4 12 0,0
12.01.2018 16:00:00 3,8 2,0 3,7 6,0 7,6 10 5 24 13 E 1025,3 14 0,0
12.01.2018 15:00:00 3,9 2,4 3,9 5,9 7,6 12 6 22 12 E 1024,8 13 0,0
12.01.2018 14:00:00 3,6 2,7 3,9 6,0 7,6 11 6 23 12 ENE 1024,8 8 0,0
12.01.2018 13:00:00 3,6 2,9 4,0 5,9 7,6 12 6 25 13 ENE 1024,9 3,8 0,0
12.01.2018 12:00:00 3,8 3,1 4,2 6,0 7,6 12 7 22 12 E 1025,2 3,5 0,0
12.01.2018 11:00:00 4,1 3,5 4,2 6,0 7,6 10 5 19 10 ENE 1025,1 4,8 0,0
12.01.2018 10:00:00 4,1 3,5 4,2 6,0 7,6 9 5 19 11 E 1024,5 4,7 0,0
12.01.2018 09:00:00 4,1 3,8 4,0 6,0 7,6 8 4 23 12 ENE 1024,1 3,7 0,0
12.01.2018 08:00:00 4,0 3,7 3,9 6,0 7,6 8 4 15 8 NE 1023,7 0,2 0,0
12.01.2018 07:00:00 4,0 3,7 4,0 6,0 7,6 8 4 14 8 ENE 1023,4 0,2 0,0
12.01.2018 06:00:00 4,2 3,8 4,1 6,0 7,6 9 5 18 10 NE 1023,0 0,7 0,0
12.01.2018 05:00:00 4,6 4,0 4,4 6,0 7,6 7 4 13 7 ENE 1022,9 3,1 0,0
12.01.2018 04:00:00 4,5 3,9 4,4 6,0 7,6 7 4 14 8 ENE 1022,8 3,7 0,0
12.01.2018 03:00:00 4,5 4,1 4,4 6,1 7,7 6 4 12 7 ENE 1022,2 2,6 0,0
12.01.2018 02:00:00 4,7 4,1 4,5 6,1 7,6 5 3 12 7 E 1021,8 3,0 0,0
12.01.2018 01:00:00 4,8 4,2 4,5 6,1 7,7 5 3 14 7 NE 1021,6 3,1 0,0
12.01.2018 00:00:00 4,7 4,1 4,4 6,1 7,6 4 2 10 5 NE 1021,5 4,3 0,0
11.01.2018 23:00:00 4,6 4,0 3,6 6,1 7,6 5 3 9 5 ENE 1021,1 4,4 0,0
11.01.2018 22:00:00 4,6 4,0 3,0 6,2 7,7 4 2 6 3 NE 1020,4 2,2 0,0
11.01.2018 21:00:00 4,9 4,3 3,4 6,2 7,6 3 2 6 3 ENE 1020,0 4,1 0,0
11.01.2018 20:00:00 5,1 4,4 3,4 6,2 7,7 4 2 9 5 ENE 1019,7 7 0,0
11.01.2018 19:00:00 5,4 4,5 3,6 6,2 7,7 3 2 4 2 E 1019,0 12 0,0
11.01.2018 18:00:00 5,6 4,7 5,0 6,1 7,7 4 2 6 3 NNW 1018,6 15 0,0
11.01.2018 17:00:00 6,0 4,6 5,3 6,0 7,7 3 2 12 6 ENE 1017,7 20 0,0
11.01.2018 16:00:00 6,3 4,9 6,4 5,9 7,7 7 4 15 8 ESE 1017,1 20 0,0
11.01.2018 15:00:00 7,4 4,7 8,4 5,8 7,7 5 3 12 7 ESE 1016,1 20 0,0
11.01.2018 14:00:00 8,4 5,1 6,7 5,7 7,7 5 3 10 6 W 1015,4 20 0,2
11.01.2018 13:00:00 6,4 5,3 6,5 5,6 7,7 1 1 6 3 SW 1015,7 11 0,0
11.01.2018 12:00:00 6,4 5,3 7,0 5,6 7,7 2 1 5 3 NW 1015,8 20 0,0
11.01.2018 11:00:00 5,9 5,5 4,9 5,6 7,7 1 1 4 2 WNW 1015,8 17 0,0
11.01.2018 10:00:00 4,4 4,1 2,8 5,6 7,6 2 1 7 4 WSW 1015,6 6 0,0
11.01.2018 09:00:00 3,7 3,4 2,6 5,6 7,7 5 3 6 3 N 1015,0 1,4 0,0
11.01.2018 08:00:00 3,7 3,3 2,8 5,7 7,7 3 2 5 3 WNW 1014,7 0,5 0,0
11.01.2018 07:00:00 3,9 3,5 3,6 5,7 7,7 3 2 14 8 N 1014,1 1,1 1,6
11.01.2018 06:00:00 4,1 3,7 3,4 5,7 7,7 10 5 26 14 SSW 1013,7 4,5 0,4
11.01.2018 05:00:00 3,8 3,5 2,5 5,7 7,6 2 1 6 3 E 1013,2 8 0,0
11.01.2018 04:00:00 3,5 3,1 1,7 5,7 7,7 4 2 8 4 SE 1013,3 1,0 0,0
11.01.2018 03:00:00 3,8 3,4 1,9 5,7 7,7 2 1 8 5 NNE 1012,9 1,1 0,0
11.01.2018 02:00:00 4,0 3,6 2,8 5,7 7,7 3 1 5 3 NNE 1012,9 4,0 0,0
11.01.2018 01:00:00 4,1 3,7 3,5 5,8 7,7 3 1 6 3 NNW 1012,8 1,2 0,0
11.01.2018 00:00:00 4,3 3,9 3,7 5,8 7,7 2 1 5 3 SE 1012,9 0,6 0,0
10.01.2018 23:00:00 4,5 4,1 3,9 5,8 7,7 2 1 6 3 NNE 1013,1 3,4 0,0
10.01.2018 22:00:00 4,4 4,0 3,6 5,8 7,7 3 1 5 3 E 1013,0 9 0,0
10.01.2018 21:00:00 4,4 4,1 2,2 5,8 7,7 3 2 9 5 SE 1013,0 6 0,0
10.01.2018 20:00:00 4,5 4,1 2,5 5,9 7,7 5 3 5 3 NE 1013,0 1,9 0,0

tt = temperature
td = dewpoint
tt 5cm = temperature 5cm
tt -20cm = temperature -20cm
tt -100cm = temperature -100cm
ff = wind speed
fx = gusts
dd = wind direction
ppp = reduced air pressure
vv = visibility
rr = precipitation

Next stations